DW0359 Weather Reports


time (UTC)temp
C
wind
direction
speed
KPH
gust
KPH
rain 1hr
cm
rain 24hr
cm
rain mn
cm
humidity
%
barometer
mb
20260510224558 17 0 3.2 8.0 0.00 0.03 0.00 40 1021.4
20260510223041 18 30 3.2 8.0 0.00 0.03 0.00 40 1021.6
20260510221543 18 12 3.2 11.3 0.00 0.03 0.00 39 1021.3
20260510220037 18 11 3.2 9.7 0.00 0.03 0.00 40 1021.0
20260510214559 18 267 4.8 12.9 0.00 0.03 0.00 39 1020.9
20260510213040 18 0 3.2 8.0 0.00 0.03 0.00 41 1020.9
20260510211540 18 352 1.6 4.8 0.00 0.03 0.00 40 1021.3
20260510210036 18 350 1.6 12.9 0.00 0.03 0.00 39 1021.5
20260510204537 18 355 3.2 8.0 0.00 0.03 0.00 40 1021.8
20260510203042 18 336 1.6 9.7 0.00 0.03 0.00 38 1021.7
20260510201543 18 17 1.6 9.7 0.00 0.03 0.00 43 1021.9
20260510200038 18 17 3.2 6.4 0.00 0.03 0.00 43 1021.8
20260510194542 18 17 4.8 12.9 0.00 0.03 0.00 38 1021.7
20260510193036 19 350 3.2 9.7 0.00 0.03 0.00 38 1021.7
20260510191545 18 10 1.6 12.9 0.00 0.03 0.00 39 1021.6
20260510190044 18 39 3.2 11.3 0.00 0.03 0.00 41 1021.6
20260510184539 18 352 4.8 12.9 0.00 0.03 0.00 39 1021.6
20260510183043 18 10 3.2 9.7 0.00 0.03 0.00 43 1021.6
20260510181543 17 15 3.2 8.0 0.00 0.03 0.00 45 1021.5
20260510180044 17 28 6.4 16.1 0.00 0.03 0.00 40 1021.5
20260510174550 17 14 4.8 11.3 0.00 0.03 0.00 42 1021.7
20260510173046 17 342 3.2 9.7 0.00 0.03 0.00 43 1021.9
20260510171548 16 338 1.6 8.0 0.00 0.03 0.00 46 1021.9
20260510170035 16 343 1.6 8.0 0.00 0.03 0.00 50 1022.0
20260510164543 15 0 3.2 6.4 0.00 0.03 0.00 49 1021.8
20260510163042 15 33 1.6 11.3 0.00 0.03 0.00 52 1022.0
20260510161540 15 0 0.0 3.2 0.00 0.03 0.00 57 1021.7
20260510160046 14 0 0.0 0.0 0.00 0.03 0.00 59 1021.9
20260510154546 13 0 0.0 0.0 0.00 0.03 0.00 63 1022.1
20260510153043 13 0 0.0 6.4 0.00 0.03 0.00 61 1022.1
20260510151543 13 0 0.0 3.2 0.00 0.03 0.00 62 1021.8
20260510150045 13 0 0.0 4.8 0.00 0.03 0.00 60 1021.9
20260510144551 13 326 3.2 6.4 0.00 0.03 0.00 59 1022.0
20260510143044 13 344 0.0 4.8 0.00 0.03 0.00 65 1021.8
20260510141545 13 344 1.6 6.4 0.00 0.03 0.00 60 1021.6
20260510140052 13 344 1.6 8.0 0.00 0.03 0.00 62 1021.4
20260510134544 13 0 1.6 8.0 0.00 0.03 0.00 62 1020.9
20260510133036 12 360 1.6 8.0 0.00 0.03 0.00 62 1020.6
20260510131536 12 0 1.6 6.4 0.00 0.03 0.00 62 1020.4
20260510130045 12 45 1.6 9.7 0.00 0.03 0.00 64 1019.8
20260510124553 12 53 1.6 6.4 0.00 0.03 0.00 65 1020.1
20260510123042 11 25 3.2 6.4 0.00 0.03 0.00 64 1019.8
20260510121536 11 11 3.2 6.4 0.00 0.03 0.00 64 1019.7
20260510120043 12 19 1.6 8.0 0.00 0.03 0.00 65 1019.5
20260510114538 12 32 3.2 8.0 0.00 0.03 0.00 65 1019.2
20260510113042 12 0 1.6 6.4 0.00 0.03 0.00 65 1019.0
20260510111543 12 5 1.6 6.4 0.00 0.03 0.00 64 1018.7
20260510110047 12 0 0.0 4.8 0.00 0.03 0.00 67 1018.5
20260510104543 12 0 0.0 4.8 0.00 0.03 0.00 66 1018.0
20260510103051 13 0 1.6 8.0 0.00 0.03 0.00 67 1017.9
20260510101549 13 0 0.0 4.8 0.00 0.03 0.00 69 1017.5
20260510100041 13 328 1.6 6.4 0.00 0.03 0.00 68 1017.5
20260510094546 13 11 1.6 11.3 0.00 0.03 0.00 67 1016.9
20260510093043 13 22 1.6 8.0 0.00 0.03 0.00 67 1016.8
20260510091543 13 0 1.6 9.7 0.00 0.03 0.00 68 1016.6
20260510090048 13 0 1.6 11.3 0.00 0.03 0.00 70 1016.5
20260510084543 14 23 1.6 8.0 0.00 0.03 0.00 73 1016.1
20260510083037 14 11 3.2 8.0 0.00 0.03 0.00 74 1015.9
20260510081543 14 336 3.2 14.5 0.00 0.03 0.00 77 1015.7
20260510080036 14 9 4.8 8.0 0.00 0.03 0.00 85 1015.6
20260510074546 14 0 0.0 4.8 0.00 0.03 0.00 89 1015.4
20260510073041 14 0 0.0 0.0 0.00 0.03 0.00 91 1016.2
20260510071538 15 0 0.0 0.0 0.00 0.03 0.00 90 1016.1
20260510070040 15 0 0.0 0.0 0.00 0.03 0.00 90 1015.7
20260510064543 15 0 0.0 0.0 0.00 0.03 0.00 89 1015.1
20260510063044 15 0 0.0 0.0 0.00 0.03 0.00 89 1015.0
20260510061548 15 0 0.0 0.0 0.00 0.03 0.00 88 1015.1
20260510060043 15 0 0.0 0.0 0.00 0.03 0.00 86 1014.5
20260510054557 16 0 0.0 0.0 0.00 0.05 0.00 88 1014.8
20260510053045 16 0 0.0 0.0 0.00 0.05 0.00 86 1014.5
20260510051543 16 0 0.0 0.0 0.00 0.05 0.00 87 1014.3
20260510050048 16 0 0.0 0.0 0.00 0.05 0.00 89 1014.1
20260510044548 16 0 0.0 0.0 0.00 0.05 0.05 89 1014.3
20260510043043 16 0 0.0 0.0 0.00 0.05 0.05 89 1013.9
20260510041600 16 0 0.0 0.0 0.00 0.05 0.05 90 1013.5
20260510040042 16 0 0.0 0.0 0.00 0.05 0.05 91 1013.4
20260510034547 16 0 0.0 0.0 0.00 0.05 0.05 92 1013.4
20260510033040 16 0 0.0 0.0 0.00 0.05 0.05 91 1013.1
20260510031549 16 0 0.0 0.0 0.00 0.05 0.05 91 1012.8
20260510030045 16 0 0.0 0.0 0.00 0.05 0.05 91 1012.7
20260510024600 16 0 0.0 0.0 0.00 0.05 0.05 90 1012.5
20260510023044 16 0 0.0 0.0 0.00 0.05 0.05 88 1011.7
20260510021544 16 0 0.0 0.0 0.03 0.05 0.05 87 1011.5
20260510020042 16 0 0.0 3.2 0.03 0.05 0.05 86 1011.3
20260510014542 16 17 1.6 6.4 0.03 0.10 0.05 86 1010.8
20260510013048 16 355 1.6 6.4 0.03 0.10 0.05 86 1011.1
20260510011536 17 348 3.2 14.5 0.00 0.08 0.03 84 1011.0
20260510010043 18 342 11.3 30.6 0.00 0.08 0.03 77 1010.6
20260510004547 23 236 1.6 6.4 0.00 0.33 0.03 59 1008.9
20260510003045 23 0 0.0 4.8 0.00 0.33 0.03 57 1008.2
20260510001536 24 0 0.0 6.4 0.00 0.33 0.03 55 1008.3
20260510000043 25 0 1.6 17.7 0.00 0.33 0.03 53 1008.4
20260509234542 25 0 1.6 9.7 0.00 1.80 0.03 53 1008.2
20260509233041 25 198 1.6 12.9 0.00 1.80 0.03 52 1008.4
20260509231536 25 0 1.6 8.0 0.00 1.80 0.03 51 1008.5
20260509230044 25 280 1.6 12.9 0.00 1.80 0.03 48 1008.7